TimeCST,TemperatureF,Dew PointF,Humidity,Sea Level PressureIn,VisibilityMPH,Wind Direction,Wind SpeedMPH,Gust SpeedMPH,PrecipitationIn,Events,Conditions,WindDirDegrees,DateUTC
12:15 AM,16.2,14.4,93,29.93,2.5,SE,3.5,-,N/A,,Clear,130,2013-12-02 06:15:00
12:35 AM,15.3,13.5,93,29.92,7.0,Calm,Calm,-,N/A,,Clear,0,2013-12-02 06:35:00
12:55 AM,16.7,14.9,93,29.91,5.0,SE,4.6,-,N/A,,Clear,140,2013-12-02 06:55:00
1:15 AM,20.5,18.9,93,29.91,7.0,SE,4.6,-,N/A,,Clear,140,2013-12-02 07:15:00
1:35 AM,18.9,17.6,95,29.91,4.0,SE,3.5,-,N/A,,Clear,140,2013-12-02 07:35:00
1:55 AM,18.7,17.2,94,29.91,3.0,SSE,3.5,-,N/A,,Clear,150,2013-12-02 07:55:00
2:15 AM,18.3,16.7,93,29.91,1.8,SSE,3.5,-,N/A,,Mist,150,2013-12-02 08:15:00
2:35 AM,20.5,19.2,95,29.89,3.0,SE,3.5,-,N/A,,Clear,140,2013-12-02 08:35:00
2:55 AM,-9999,-9999,N/A,29.89,4.0,SSE,4.6,-,N/A,,Haze,150,2013-12-02 08:55:00
3:15 AM,19.4,17.6,93,29.88,3.0,Calm,Calm,-,N/A,,Overcast,0,2013-12-02 09:15:00
3:35 AM,-9999,-9999,N/A,29.88,4.0,SE,3.5,-,N/A,,Haze,140,2013-12-02 09:35:00
3:55 AM,-9999,-9999,N/A,29.88,5.0,SSE,4.6,-,N/A,,Haze,150,2013-12-02 09:55:00
4:15 AM,-9999,-9999,N/A,29.87,5.0,SSE,4.6,-,N/A,,Haze,150,2013-12-02 10:15:00
4:35 AM,23.7,22.1,94,29.86,5.0,SE,4.6,-,N/A,,Mostly Cloudy,140,2013-12-02 10:35:00
4:55 AM,23.9,22.5,94,29.86,5.0,SSE,4.6,-,N/A,,Scattered Clouds,150,2013-12-02 10:55:00
5:15 AM,23.7,22.1,94,29.85,5.0,SE,5.8,-,N/A,,Mostly Cloudy,140,2013-12-02 11:15:00
5:35 AM,23.7,22.1,94,29.84,5.0,SSE,3.5,-,N/A,,Overcast,150,2013-12-02 11:35:00
5:55 AM,23.9,22.6,95,29.84,5.0,SE,4.6,-,N/A,,Overcast,140,2013-12-02 11:55:00
6:15 AM,23.9,22.1,93,29.84,5.0,SE,3.5,-,N/A,,Overcast,130,2013-12-02 12:15:00
6:35 AM,23.9,22.1,93,29.84,5.0,SE,5.8,-,N/A,,Overcast,130,2013-12-02 12:35:00
6:55 AM,24.3,22.6,94,29.84,5.0,SE,3.5,-,N/A,,Overcast,130,2013-12-02 12:55:00
7:15 AM,23.9,22.1,93,29.84,5.0,SE,3.5,-,N/A,,Overcast,130,2013-12-02 13:15:00
7:35 AM,24.3,22.5,93,29.84,4.0,SE,3.5,-,N/A,,Overcast,140,2013-12-02 13:35:00
7:55 AM,24.4,22.8,94,29.84,3.0,SE,4.6,-,N/A,,Overcast,140,2013-12-02 13:55:00
8:15 AM,24.8,23.0,93,29.84,4.0,SSE,4.6,-,N/A,,Overcast,150,2013-12-02 14:15:00
8:35 AM,25.3,23.4,92,29.85,4.0,SE,3.5,-,N/A,,Overcast,140,2013-12-02 14:35:00
8:55 AM,25.7,23.9,93,29.84,4.0,SE,4.6,-,N/A,,Overcast,140,2013-12-02 14:55:00
9:15 AM,26.6,24.3,91,29.84,4.0,SE,4.6,-,N/A,,Overcast,140,2013-12-02 15:15:00
9:35 AM,27.3,24.6,90,29.83,4.0,SE,5.8,-,N/A,,Overcast,140,2013-12-02 15:35:00
9:55 AM,27.9,24.8,88,29.83,4.0,SE,5.8,-,N/A,,Overcast,140,2013-12-02 15:55:00
10:15 AM,28.4,25.2,88,29.83,5.0,SE,6.9,-,N/A,,Overcast,130,2013-12-02 16:15:00
10:35 AM,28.8,25.5,88,29.82,4.0,SE,5.8,-,N/A,,Overcast,130,2013-12-02 16:35:00
10:55 AM,29.1,25.5,86,29.82,4.0,SE,6.9,-,N/A,,Overcast,140,2013-12-02 16:55:00
11:15 AM,29.8,25.7,85,29.81,4.0,SE,5.8,-,N/A,,Overcast,130,2013-12-02 17:15:00
11:35 AM,30.2,25.7,83,29.81,4.0,SE,8.1,-,N/A,Snow,Light Snow,130,2013-12-02 17:35:00
11:55 AM,30.2,26.1,85,29.80,3.0,SE,8.1,-,N/A,,Overcast,130,2013-12-02 17:55:00
12:15 PM,30.9,26.4,83,29.79,4.0,ESE,9.2,-,N/A,,Haze,120,2013-12-02 18:15:00
12:35 PM,31.1,27.0,85,29.78,4.0,ESE,9.2,-,N/A,,Overcast,120,2013-12-02 18:35:00
12:55 PM,31.8,27.5,84,29.77,4.0,SE,9.2,-,N/A,,Haze,130,2013-12-02 18:55:00
1:15 PM,31.8,27.7,85,29.77,4.0,ESE,6.9,-,N/A,,Overcast,120,2013-12-02 19:15:00
1:35 PM,31.8,28.0,86,29.76,4.0,SE,9.2,-,N/A,,Overcast,130,2013-12-02 19:35:00
1:55 PM,31.8,28.0,86,29.74,3.0,ESE,10.4,-,N/A,Snow,Light Snow,120,2013-12-02 19:55:00
2:15 PM,31.8,28.4,87,29.73,2.0,ESE,10.4,-,N/A,Snow,Light Snow,110,2013-12-02 20:15:00
2:35 PM,32.0,28.4,87,29.73,4.0,ESE,8.1,-,N/A,Snow,Light Snow,120,2013-12-02 20:35:00
2:55 PM,32.0,28.2,86,29.73,4.0,ESE,9.2,-,N/A,Snow,Light Snow,120,2013-12-02 20:55:00
3:15 PM,32.0,28.2,86,29.74,7.0,SE,6.9,-,N/A,,Overcast,130,2013-12-02 21:15:00
3:35 PM,32.0,27.7,84,29.73,7.0,ESE,9.2,-,N/A,,Overcast,110,2013-12-02 21:35:00
3:55 PM,32.0,27.5,83,29.73,10.0,ESE,6.9,-,N/A,,Overcast,110,2013-12-02 21:55:00
4:15 PM,32.0,27.3,83,29.73,10.0,ESE,10.4,-,N/A,,Overcast,120,2013-12-02 22:15:00
4:35 PM,32.0,27.1,82,29.73,10.0,ESE,9.2,17.3,N/A,,Overcast,110,2013-12-02 22:35:00
4:55 PM,32.0,27.0,82,29.72,10.0,ESE,8.1,-,N/A,,Overcast,110,2013-12-02 22:55:00
5:15 PM,32.0,26.6,80,29.72,10.0,ESE,11.5,18.4,N/A,,Overcast,110,2013-12-02 23:15:00
5:35 PM,32.0,26.4,80,29.72,10.0,ESE,8.1,16.1,N/A,,Overcast,120,2013-12-02 23:35:00
5:55 PM,32.0,26.4,80,29.73,7.0,ESE,9.2,-,N/A,Snow,Light Snow,110,2013-12-02 23:55:00
6:15 PM,32.0,26.2,79,29.73,10.0,ESE,12.7,18.4,N/A,,Overcast,120,2013-12-03 00:15:00
6:35 PM,31.8,26.2,80,29.72,10.0,ESE,9.2,-,N/A,,Overcast,110,2013-12-03 00:35:00
6:55 PM,31.8,26.1,79,29.72,10.0,East,10.4,-,N/A,,Overcast,100,2013-12-03 00:55:00
7:15 PM,31.6,25.7,79,29.72,10.0,ESE,11.5,16.1,N/A,,Overcast,110,2013-12-03 01:15:00
7:35 PM,31.8,25.7,78,29.72,10.0,ESE,10.4,17.3,N/A,,Overcast,110,2013-12-03 01:35:00
7:55 PM,31.6,25.7,79,29.72,7.0,ESE,9.2,17.3,N/A,Snow,Light Snow,110,2013-12-03 01:55:00
8:15 PM,31.1,26.2,82,29.72,4.0,ESE,10.4,20.7,N/A,Snow,Light Snow,110,2013-12-03 02:15:00
8:35 PM,30.2,26.6,86,29.72,2.0,ESE,11.5,18.4,N/A,Snow,Light Snow,110,2013-12-03 02:35:00
8:55 PM,29.8,27.3,90,29.72,1.0,ESE,10.4,19.6,N/A,Snow,Snow,110,2013-12-03 02:55:00
9:15 PM,29.3,27.5,93,29.71,1.5,East,10.4,18.4,N/A,Snow,Light Snow,100,2013-12-03 03:15:00
9:35 PM,29.3,27.3,92,29.71,2.0,ESE,9.2,20.7,N/A,Snow,Light Snow,110,2013-12-03 03:35:00
9:55 PM,29.3,27.5,93,29.71,1.5,ESE,9.2,-,N/A,Snow,Light Snow,110,2013-12-03 03:55:00
10:15 PM,29.3,27.7,94,29.71,0.8,ESE,10.4,-,0.01,Snow,Snow,110,2013-12-03 04:15:00
10:35 PM,29.3,27.9,94,29.71,1.0,ESE,11.5,17.3,0.02,Snow,Snow,110,2013-12-03 04:35:00
10:55 PM,29.3,27.9,94,29.71,1.0,ESE,10.4,-,0.02,Snow,Snow,110,2013-12-03 04:55:00
11:15 PM,29.3,28.0,95,29.71,0.8,ESE,8.1,-,0.01,Snow,Snow,110,2013-12-03 05:15:00
11:35 PM,29.3,28.0,95,29.71,1.0,ESE,9.2,-,0.02,Snow,Light Snow,110,2013-12-03 05:35:00
11:55 PM,29.7,28.4,95,29.71,0.8,ESE,8.1,16.1,0.03,Snow,Snow,110,2013-12-03 05:55:00